Wind_Speed
46 49 51 50 47 44 40 38 37 37 37 35 35 35 33 31 30 30 29 28 26 24 21 19 17 16 15 15 15 16 17 19 22 24 25 28 29 31 31 31 30 28 26
43 46 48 47 43 42 39 38 37 36 36 36 36 35 33 31 30 29 27 26 23 20 18 17 16 15 15 16 16 16 17 20 22 24 25 26 28 31 32 32 31 29 28
40 42 42 37 34 32 31 34 35 36 36 36 36 34 32 31 29 27 25 23 21 19 18 19 19 19 19 18 18 17 18 19 22 25 27 27 26 29 31 32 32 31 30
38 40 34 27 26 23 22 26 31 34 36 36 35 33 31 29 28 25 23 22 21 21 21 22 22 22 22 21 20 20 20 21 22 26 28 29 29 28 28 30 31 31 30
40 39 37 33 30 33 33 30 32 34 35 35 34 32 30 28 27 25 24 23 23 23 24 25 25 24 24 24 23 23 23 23 24 25 27 28 29 29 28 26 29 30 30
36 36 37 37 35 37 36 37 36 35 34 34 32 31 29 28 27 27 27 27 27 27 27 28 28 28 27 27 26 25 26 26 26 27 27 27 28 29 29 26 26 28 29
36 36 36 36 37 38 39 39 38 36 35 35 35 34 31 30 29 30 30 31 32 32 31 31 31 31 31 29 29 28 28 28 28 28 27 27 27 28 28 26 24 26 27
39 40 40 41 41 42 43 43 42 41 41 40 40 40 38 36 35 35 34 35 36 36 36 35 34 34 34 33 32 31 31 30 29 29 28 26 26 27 27 26 24 24 25
42 43 44 46 47 48 48 49 49 49 48 48 47 47 46 45 44 43 42 41 40 40 40 39 39 39 38 38 36 34 33 32 31 30 29 27 26 27 26 25 24 23 23
45 46 48 50 51 53 54 54 55 56 56 56 55 55 54 53 53 52 51 50 48 47 45 43 43 42 41 41 39 37 35 34 33 31 30 29 27 26 26 25 24 23 22
47 49 52 54 55 56 58 59 59 60 61 61 61 61 61 61 61 60 59 58 56 54 52 49 47 44 43 43 41 39 38 36 35 33 32 30 28 27 26 24 23 22 22
51 53 55 57 58 60 61 62 63 64 64 65 65 66 66 66 66 65 65 64 63 61 57 54 52 50 47 45 44 42 40 39 37 35 33 31 29 28 26 24 23 22 21
57 60 61 62 63 65 66 67 68 69 69 70 70 70 70 69 69 68 67 67 66 64 62 59 56 54 52 50 47 45 42 41 39 37 35 32 29 28 26 24 22 21 20
63 65 67 68 69 70 72 73 74 75 76 76 76 76 75 75 74 73 71 70 69 68 66 64 61 57 54 53 51 49 46 44 42 39 36 33 30 28 26 24 22 20 19
69 70 71 73 76 77 78 77 76 74 73 73 75 77 80 81 80 80 79 78 77 75 72 70 67 64 62 58 56 55 52 49 45 42 37 33 30 28 26 24 21 19 18
72 74 76 77 76 73 68 62 57 53 51 49 48 50 54 60 66 72 76 79 80 81 80 77 75 71 68 65 61 58 55 52 48 43 38 34 31 28 26 23 21 19 18
76 78 75 69 60 50 43 39 37 36 36 35 34 34 34 34 35 39 46 54 62 70 75 78 78 75 72 68 63 59 55 51 48 45 40 36 32 29 26 24 21 19 18
76 69 59 48 41 37 37 38 40 41 42 41 41 41 39 36 34 33 32 33 35 41 49 57 64 68 69 68 66 60 55 51 48 45 42 37 34 31 27 24 21 20 18
62 52 44 39 38 39 40 42 43 45 45 45 45 44 43 41 39 36 34 34 34 34 34 37 43 50 56 61 62 61 57 51 48 43 40 37 35 32 28 25 22 20 19
48 42 39 39 40 43 45 47 48 49 49 49 48 47 46 45 43 42 40 38 37 35 34 32 32 35 42 48 53 55 54 50 48 45 41 38 36 34 31 27 25 22 20
41 40 42 44 47 49 51 52 52 52 52 51 50 49 48 47 46 45 43 40 39 37 35 33 31 30 33 41 47 50 50 49 47 44 42 40 38 36 33 30 27 24 21
42 44 47 50 52 54 56 55 55 54 53 52 51 50 48 48 47 45 43 41 39 38 36 34 32 31 30 34 43 50 52 49 47 46 44 42 39 37 35 32 29 26 23
47 50 53 55 57 58 58 58 57 55 54 52 50 49 47 45 44 42 41 40 38 37 35 34 31 30 30 33 39 47 54 51 47 47 45 43 41 39 36 34 31 27 24
54 56 58 59 58 57 57 56 55 53 51 48 46 44 43 41 39 38 38 37 36 35 33 32 30 29 28 31 36 43 53 52 46 46 45 44 42 40 37 35 31 27 24
57 57 57 55 54 53 52 50 49 47 45 44 42 39 37 35 34 33 33 32 31 31 30 29 28 26 26 27 31 40 50 53 46 45 45 43 40 37 35 33 29 26 24
57 55 54 53 51 49 46 44 43 42 40 37 35 32 31 30 29 28 28 27 27 27 27 26 24 22 22 24 28 37 47 52 46 43 45 42 38 36 33 30 28 26 24
Wind_Direction
280 278 276 272 267 268 269 271 275 281 286 293 297 299 298 296 295 294 291 288 284 280 277 275 275 277 281 286 291 298 305 310 314 314 310 304 297 290 284 279 275 273 272
275 270 264 257 254 260 261 264 272 280 286 292 296 298 297 295 293 292 288 282 277 272 269 271 273 275 278 283 289 299 307 313 318 321 321 314 303 294 287 281 275 270 268
267 265 250 245 249 253 253 262 271 278 285 292 295 295 295 293 291 287 282 274 268 265 267 271 273 274 274 278 283 291 301 309 315 321 323 322 313 302 292 284 276 269 265
272 272 273 265 270 276 286 281 283 285 288 289 292 293 291 290 288 284 278 268 262 263 268 272 275 275 274 276 280 286 295 303 309 316 321 322 318 311 299 288 278 268 262
292 291 294 304 301 300 302 299 293 291 291 290 289 290 290 289 285 280 274 267 262 263 268 272 274 274 274 276 281 287 293 298 303 309 316 320 319 314 307 294 281 270 261
295 296 299 303 303 301 298 301 299 293 290 290 289 288 287 287 285 281 274 269 266 265 267 270 273 273 273 276 280 285 290 294 298 304 310 316 318 316 311 301 285 272 261
300 301 301 300 298 296 295 295 295 294 291 289 288 286 284 283 282 279 277 275 272 271 271 272 273 273 273 275 278 282 286 289 293 299 306 313 317 316 313 305 291 275 264
301 300 299 298 296 294 293 291 290 288 286 285 283 281 280 279 278 276 275 273 272 273 274 275 274 274 273 274 276 278 281 283 286 292 300 308 314 316 314 308 296 281 267
299 298 296 295 294 292 290 289 288 286 284 283 281 279 277 276 274 273 271 269 268 269 271 272 273 273 272 273 274 275 276 277 280 286 293 301 309 315 314 310 302 288 272
298 296 294 293 291 290 289 288 286 285 283 281 280 278 276 274 272 271 270 269 267 266 266 267 268 268 269 270 270 271 272 272 275 280 286 294 302 309 312 310 305 294 278
295 294 292 291 290 289 288 286 284 283 281 279 278 276 275 273 272 270 269 268 267 265 264 263 263 264 266 267 267 267 268 268 270 274 280 288 296 302 307 309 307 299 284
296 294 293 292 291 290 289 287 285 282 280 278 276 275 273 272 271 270 269 268 267 266 264 262 260 260 261 263 263 263 264 264 265 269 275 282 290 296 303 307 307 301 289
297 297 296 295 293 291 289 287 285 283 280 277 275 273 272 271 269 268 267 266 265 265 264 263 261 258 258 259 260 260 260 260 261 264 270 276 283 291 298 304 305 302 292
301 300 299 297 295 293 290 288 285 282 279 277 274 271 269 268 267 266 266 265 264 263 263 262 261 259 257 257 258 258 258 258 257 259 264 270 278 285 293 299 302 299 292
302 301 299 298 296 294 292 289 287 285 282 279 275 271 268 266 265 264 263 263 263 262 262 261 261 260 260 258 257 258 258 257 255 255 259 265 272 280 287 292 296 292 287
304 303 301 299 297 295 293 293 292 292 292 290 287 282 277 272 269 266 264 263 262 261 260 260 260 260 261 260 259 258 257 255 251 250 253 259 267 273 278 284 289 287 280
307 305 303 302 300 299 298 299 299 300 300 299 297 295 291 287 282 277 272 268 265 262 261 260 260 259 259 258 258 256 254 251 247 247 250 255 261 266 271 276 281 281 275
310 308 306 304 302 301 301 300 299 298 297 295 293 291 289 287 285 283 281 278 275 270 264 260 258 257 256 255 254 251 249 248 244 243 245 250 255 260 265 269 272 275 273
311 310 308 306 304 303 302 301 299 298 296 294 291 289 287 285 282 281 281 279 279 277 273 266 260 255 251 249 247 245 244 243 241 240 242 246 251 255 259 262 264 266 266
314 312 309 307 306 304 303 301 299 297 295 293 290 286 284 281 279 278 276 275 274 275 274 271 266 258 248 241 237 238 238 237 238 238 241 244 249 251 254 257 258 259 259
314 311 308 306 306 304 303 301 299 297 294 292 289 286 282 279 277 275 273 270 269 268 268 267 266 260 248 235 227 224 223 224 230 231 234 240 245 246 249 252 253 254 254
314 310 307 306 305 303 302 300 299 297 294 291 288 285 282 279 277 274 270 267 265 262 261 263 262 259 250 235 225 216 212 214 221 223 227 231 236 241 243 246 249 250 249
315 312 309 307 306 304 302 300 299 297 294 291 288 284 281 279 275 271 267 263 260 257 255 256 256 254 247 238 227 216 208 207 212 217 221 224 229 234 237 240 243 244 243
318 315 312 310 308 306 304 302 300 297 294 291 289 285 282 277 273 268 264 260 255 250 247 247 247 248 245 239 230 217 208 201 202 209 215 219 223 227 231 235 237 237 236
323 320 319 317 314 311 307 305 302 299 296 293 290 286 280 275 269 264 260 254 248 241 237 237 239 242 242 238 229 215 207 200 196 201 209 214 217 221 225 228 230 230 228
330 328 326 324 321 318 314 310 306 303 301 297 292 286 280 273 267 261 253 243 235 230 228 229 231 236 236 233 226 215 206 200 195 198 203 207 211 215 218 221 222 222 220
Height
5860 5854 5847 5841 5835 5830 5834 5838 5840 5841 5839 5839 5838 5837 5836 5834 5832 5831 5830 5829 5827 5827 5827 5826 5826 5826 5826 5825 5824 5824 5823 5821 5819 5817 5816 5814 5812 5812 5812 5812 5813 5815 5816
5848 5840 5830 5821 5821 5820 5822 5825 5830 5832 5832 5832 5831 5830 5829 5827 5826 5825 5823 5823 5822 5822 5822 5822 5822 5822 5821 5821 5820 5818 5817 5816 5813 5811 5809 5808 5806 5803 5803 5803 5804 5806 5808
5834 5823 5806 5799 5804 5806 5805 5815 5821 5824 5824 5824 5824 5823 5822 5820 5819 5818 5817 5817 5817 5817 5817 5818 5818 5817 5817 5816 5815 5813 5812 5810 5808 5805 5803 5801 5799 5796 5795 5794 5795 5797 5799
5824 5814 5798 5789 5799 5798 5801 5808 5814 5815 5816 5816 5815 5815 5815 5813 5812 5811 5811 5811 5811 5812 5812 5812 5812 5812 5811 5810 5809 5808 5806 5805 5803 5799 5796 5793 5791 5788 5787 5785 5785 5787 5789
5821 5814 5804 5802 5804 5804 5805 5805 5808 5808 5807 5807 5807 5807 5806 5806 5805 5804 5804 5804 5805 5806 5806 5806 5806 5806 5805 5804 5803 5802 5800 5799 5797 5795 5791 5788 5784 5780 5779 5778 5777 5777 5780
5821 5815 5810 5806 5804 5803 5802 5802 5802 5801 5800 5799 5799 5800 5799 5799 5798 5797 5797 5798 5798 5798 5799 5799 5799 5799 5798 5797 5796 5795 5794 5792 5791 5789 5786 5783 5779 5775 5771 5771 5769 5769 5771
5816 5812 5808 5804 5802 5801 5799 5798 5796 5794 5793 5792 5792 5791 5791 5791 5791 5790 5790 5790 5790 5790 5791 5792 5791 5791 5790 5790 5789 5788 5787 5786 5784 5782 5780 5777 5773 5769 5766 5763 5762 5762 5763
5811 5806 5802 5799 5796 5794 5792 5790 5787 5786 5785 5783 5782 5781 5781 5781 5781 5781 5782 5782 5781 5781 5781 5782 5782 5782 5782 5781 5781 5781 5780 5779 5777 5776 5774 5771 5767 5764 5760 5757 5756 5755 5756
5804 5800 5795 5791 5787 5784 5781 5778 5776 5774 5773 5772 5771 5770 5769 5769 5769 5769 5770 5770 5771 5771 5771 5772 5772 5772 5772 5772 5772 5772 5772 5771 5770 5768 5767 5765 5762 5758 5755 5752 5750 5749 5749
5797 5791 5786 5781 5777 5772 5769 5766 5762 5760 5758 5757 5756 5755 5755 5755 5755 5755 5756 5756 5757 5758 5759 5760 5760 5761 5761 5762 5762 5763 5763 5763 5762 5761 5760 5758 5755 5753 5749 5746 5744 5743 5743
5790 5783 5776 5771 5766 5760 5756 5752 5748 5746 5743 5741 5739 5738 5738 5738 5738 5739 5739 5740 5741 5743 5745 5746 5747 5749 5750 5750 5751 5752 5753 5753 5753 5753 5752 5750 5748 5746 5743 5741 5738 5737 5736
5778 5771 5765 5759 5753 5747 5742 5737 5732 5729 5726 5723 5722 5720 5719 5719 5719 5720 5721 5721 5723 5724 5727 5730 5732 5735 5737 5738 5739 5741 5742 5743 5744 5744 5744 5743 5741 5739 5737 5735 5732 5730 5729
5765 5758 5751 5745 5738 5731 5725 5720 5714 5710 5706 5703 5701 5700 5699 5698 5698 5699 5700 5701 5703 5705 5708 5711 5715 5719 5722 5724 5727 5728 5730 5732 5734 5735 5735 5735 5734 5732 5730 5728 5726 5724 5723
5749 5741 5734 5726 5718 5711 5704 5698 5692 5686 5682 5679 5677 5676 5675 5675 5676 5677 5678 5679 5682 5684 5687 5691 5695 5700 5705 5709 5712 5715 5718 5721 5723 5725 5726 5726 5725 5725 5723 5721 5719 5718 5717
5733 5724 5714 5705 5696 5687 5679 5671 5664 5659 5654 5651 5650 5648 5648 5648 5649 5651 5653 5656 5659 5662 5666 5670 5675 5680 5685 5691 5696 5700 5703 5707 5711 5714 5716 5717 5717 5716 5715 5714 5713 5712 5712
5713 5703 5692 5681 5671 5661 5653 5646 5640 5635 5631 5628 5625 5623 5622 5621 5623 5624 5627 5630 5633 5637 5642 5647 5653 5659 5665 5671 5677 5683 5688 5693 5698 5702 5705 5707 5708 5708 5708 5707 5707 5707 5707
5692 5679 5667 5656 5647 5640 5634 5630 5626 5622 5619 5616 5613 5610 5608 5606 5604 5604 5604 5606 5608 5612 5617 5622 5629 5636 5644 5651 5659 5666 5672 5677 5683 5689 5693 5696 5698 5699 5700 5700 5700 5701 5701
5668 5656 5645 5638 5632 5627 5623 5619 5616 5612 5608 5605 5602 5599 5596 5595 5594 5593 5592 5591 5591 5592 5595 5599 5605 5612 5621 5630 5640 5648 5655 5662 5669 5675 5680 5685 5688 5690 5692 5693 5694 5695 5696
5649 5639 5632 5627 5622 5617 5612 5608 5603 5599 5595 5591 5588 5585 5583 5581 5580 5580 5580 5580 5579 5580 5580 5582 5585 5591 5598 5608 5618 5629 5638 5646 5654 5661 5667 5673 5678 5681 5683 5685 5687 5688 5690
5636 5628 5623 5617 5612 5607 5601 5595 5590 5585 5580 5576 5573 5570 5568 5567 5566 5566 5566 5566 5567 5568 5568 5570 5572 5574 5580 5587 5598 5608 5620 5631 5639 5647 5655 5662 5667 5672 5675 5677 5680 5682 5684
5627 5620 5613 5607 5600 5594 5587 5580 5574 5569 5564 5559 5556 5553 5551 5550 5550 5550 5551 5552 5553 5555 5557 5559 5561 5563 5566 5571 5581 5591 5603 5614 5624 5633 5642 5650 5656 5662 5666 5669 5672 5675 5677
5619 5611 5603 5595 5587 5579 5570 5563 5557 5551 5545 5541 5537 5535 5533 5532 5532 5533 5534 5536 5538 5541 5544 5546 5549 5552 5555 5559 5566 5576 5588 5600 5610 5620 5629 5637 5645 5652 5657 5661 5664 5667 5670
5609 5599 5589 5580 5571 5562 5552 5544 5538 5531 5526 5521 5518 5516 5514 5514 5514 5515 5517 5520 5523 5527 5531 5534 5538 5541 5544 5548 5554 5563 5575 5586 5597 5607 5617 5626 5634 5642 5648 5653 5657 5660 5663
5597 5585 5574 5563 5554 5544 5534 5526 5518 5512 5506 5502 5499 5497 5496 5496 5497 5499 5501 5505 5509 5513 5518 5522 5527 5531 5534 5537 5543 5551 5562 5574 5585 5595 5605 5615 5624 5632 5639 5645 5649 5653 5657
5584 5571 5558 5547 5536 5526 5517 5508 5500 5493 5488 5485 5482 5480 5480 5480 5482 5484 5487 5491 5496 5501 5507 5513 5517 5522 5525 5529 5534 5540 5551 5563 5574 5585 5595 5606 5616 5624 5631 5637 5642 5647 5651
5572 5558 5546 5533 5522 5511 5501 5492 5485 5478 5473 5469 5467 5465 5465 5466 5468 5471 5475 5479 5486 5492 5498 5505 5510 5514 5518 5521 5526 5533 5543 5554 5566 5577 5587 5598 5608 5617 5624 5630 5636 5640 5645